Dean International
Flight School

Career Spotlight

Mika

Mika

Congratulations to Mika from Khazakstan. She recently sent us this photo of her flying an Airbus airliner.

More...
Mika's Success Story
close

Congratulations to Mika from Khazakstan. She recently sent us this photo of her flying an Airbus airliner.

Mario

Mario

My dreams could not have been realized if I wouldn't have been part of the Dean International family.

More...
Mario's Success Story
close

"My dreams could not have been realized if I wouldn't have been part of the Dean International family. Thank you Robert, thanks to all my co-workers, and thanks to all of my students!"

Fernando

Fernando

I am now working as a First Officer at TACA and am enjoying every moment of it.

More...
Fernando's Success Story
close

"Will never forget my time of flight training at Dean International. I am now working as a First Officer at TACA and am enjoying every moment of it."

Alvaro

Alvaro

Because of the flight time I was able to built while instructing, I got the experience needed to apply to an airline in Colombia.

More...
Alvaro's Success Story
close

Dean alumnus Alvaro Londoño currently flies with Tampa Cargo. He says of his experience at Dean: "I want to take this opportunity to thank you for giving me the chance to build my experience and expand my knowledge in Dean International. Because of the flight time I was able to built flight instructing, I got the experience needed to apply to an airline in Colombia."

Ralph

Ralph

Every Aruban student of Dean International has made it into Tiara Air Aruba, that is very nice.

More...
Ralph's Success Story
close

"Next to me is my Co-Pilot, Elison. This picture was taken on our first flight together, which was almost exactly 5 years after I finished at Dean International. [...] Every Aruban student of Dean International has made it into Tiara Air Aruba. [...] The future looks bright here in Aruba."

Rohaan

Rohaan

The [..] staff will all work diligently to help you finish your certificates as safely and efficiently as possible.

More...
Rohaan's Success Story
close

After receiving very hard times from other flight schools [...], I came to Dean International where Robert Dean personally sat down with me and gave me a financial and chronological look into how much remained to finish my private pilot certificate. Through his hard efforts as an instructor and mentor, I was able to finish my private pilot certificate within one week.

Welcome to Dean International

In over two decades, Dean International has educated over 7,000 pilots from all over the world, including over 1,000 students from India alone. By offering a great training experience, a friendly service staff, an ample variety of aircraft, and by improving constantly, we have become one of the largest, most prestigious FAA 141-approved flight schools in North America. Located in Miami, Florida, USA, our flight school offers an ideal location for year-round, "learn to fly" weather, flight training. Dean International is not only well-equipped to provide services to professional trainees but also caters to General Aviation renters. Visit or contact our headquarters at Kendall-Tamiami Executive Airport located in Miami, FL today to learn more about us, or simply read more about our programs if you are an international student interested in joining our school.

Local Airport Information
TAF FOR KTMB (Issued: Mon, December 22nd 2014 3:39 PM UTC)
TAF
      AMD KTMB 221436Z 2215/2312 16007KT P6SM FEW090 BKN250
      FM230000 16003KT P6SM SCT050 BKN250
     
METAR FOR KTMB (Issued: Mon, December 22nd 2014 3:53 PM UTC):
KTMB 221553Z 15009KT 10SM SCT028 SCT036 27/19 A3004 RMK AO2 SLP171 T02670194

This weather information is provided by the National Weather Service.
It is automatically refreshed every three minutes.
TAF FOR KHST (Issued: Mon, December 22nd 2014 8:24 AM UTC)
TAF KHST 2208/2314 VRB06KT 9999 FEW050 QNH3002INS
      BECMG 2214/2215 14009KT 9999 FEW050 QNH2998INS
      BECMG 2305/2306 13009KT 9999 BKN005 QNH2997INS TX26/2220Z TN19/2208Z
     
METAR FOR KHST (Issued: Mon, December 22nd 2014 2:58 PM UTC):
KHST 221458Z AUTO 16009KT 10SM FEW022 26/20 A3005 RMK AO2 SLP179 T02580202 52010 $

This weather information is provided by the National Weather Service.
It is automatically refreshed every three minutes.
TAF FOR KOPF (Issued: Mon, December 22nd 2014 3:39 PM UTC)
TAF
      AMD KOPF 221436Z 2215/2312 17005KT P6SM FEW080 BKN250
      FM230000 16004KT P6SM SCT050 BKN250
     
METAR FOR KOPF (Issued: Mon, December 22nd 2014 3:53 PM UTC):
KOPF 221553Z 18012G21KT 10SM FEW028 26/19 A3004 RMK AO2 SLP173 T02560194

This weather information is provided by the National Weather Service.
It is automatically refreshed every three minutes.
TAF FOR KMIA (Issued: Mon, December 22nd 2014 4:09 PM UTC)
TAF
      AMD KMIA 221603Z 2216/2312 16010KT P6SM SCT050 BKN250
      FM230000 16005KT P6SM SCT050 BKN250
     
METAR FOR KMIA (Issued: Mon, December 22nd 2014 3:53 PM UTC):
KMIA 221553Z 16009G17KT 120V180 10SM SCT023 BKN250 26/20 A3004 RMK AO2 SLP173 T02610200

This weather information is provided by the National Weather Service.
It is automatically refreshed every three minutes.
Design by Ariel Llizo
© Dean International Inc. 2012